Provo, UT

4:50 PM MDT on April 25, 2017 (GMT -0600)
Provo Municipal

Weather History for KPVU - December, 2011

Change the Weather History Date:

Saturday, December 17, 2011

  Actual Average Record
Temperature  
Mean Temperature 22 °F -  
Max Temperature 30 °F 33 °F 57 °F (2008)
Min Temperature 15 °F 20 °F 5 °F (2013)
Degree Days  
Heating Degree Days 42    
Moisture  
Dew Point 18 °F    
Average Humidity 91    
Maximum Humidity 100    
Minimum Humidity 69    
Precipitation  
Precipitation 0.00 in - - ()
Sea Level Pressure  
Sea Level Pressure 30.46 in    
Wind  
Wind Speed 1 mph (ESE)    
Max Wind Speed 6 mph    
Max Gust Speed -    
Visibility 4 miles    
Events      
Averages and records for this station are not official NWS values.
T = Trace of Precipitation, MM = Missing Value Source: NWS Daily Summary

Daily Weather History Graph

Daily Weather History Graph

Search for Another Location

Airport or City:

Trip Planner

Search our weather history database for the weather conditions in past years. The results will help you decide how hot, cold, wet, or windy it might be!

Date:

Astronomy

Dec. 17, 2011 Rise Set
Actual Time 7:43 AM MST 5:02 PM MST
Civil Twilight 7:12 AM MST 5:33 PM MST
Nautical Twilight 6:38 AM MST 6:07 PM MST
Astronomical Twilight 6:05 AM MST 6:40 PM MST
Moon No Moon Rise 11:59 AM MST (12/17)
Length of Visible Light 10h 20m
Length of Day
9h 18m
Waning Gibbous, 53% of the Moon is Illuminated
Dec 17
Waning Gibbous
Dec 17
Last Quarter
Dec 24
New
Dec 31
First Quarter
Jan 9
Full

Hourly Weather History & Observations

Time (MST) Temp. Windchill Dew Point Humidity Pressure Visibility Wind Dir Wind Speed Gust Speed Precip Events Conditions
12:15 AM 19.4 °F - 17.6 °F 93% 30.54 in 5.0 mi Calm Calm - N/A   Clear
12:35 AM 17.6 °F - 15.8 °F 93% 30.55 in 5.0 mi Calm Calm - N/A   Clear
12:55 AM 17.6 °F 12.3 °F 15.8 °F 93% 30.54 in 5.0 mi SSE 3.5 mph - N/A   Clear
1:15 AM 19.4 °F 11.5 °F 17.6 °F 93% 30.54 in 6.0 mi SE 5.8 mph - N/A   Clear
1:35 AM 17.6 °F - 14.0 °F 86% 30.54 in 5.0 mi Calm Calm - N/A   Clear
1:55 AM 17.6 °F - 15.8 °F 93% 30.54 in 5.0 mi Calm Calm - N/A   Clear
2:15 AM 17.6 °F - 17.6 °F 100% 30.54 in 5.0 mi Calm Calm - N/A   Clear
2:35 AM 17.6 °F - 17.6 °F 100% 30.54 in 5.0 mi Calm Calm - N/A   Clear
2:55 AM 17.6 °F - 14.0 °F 86% 30.54 in 5.0 mi Calm Calm - N/A   Clear
3:15 AM 17.6 °F - 15.8 °F 93% 30.53 in 5.0 mi Calm Calm - N/A   Clear
3:35 AM 19.4 °F - 17.6 °F 93% 30.53 in 6.0 mi Calm Calm - N/A   Clear
3:55 AM 17.6 °F - 17.6 °F 100% 30.52 in 5.0 mi Calm Calm - N/A   Clear
4:15 AM 19.4 °F - 17.6 °F 93% 30.53 in 5.0 mi Calm Calm - N/A   Clear
4:35 AM 17.6 °F - 17.6 °F 100% 30.53 in 5.0 mi Calm Calm - N/A   Clear
4:55 AM 15.8 °F - 14.0 °F 93% 30.52 in 5.0 mi Calm Calm - N/A   Clear
5:15 AM 15.8 °F - 15.8 °F 100% 30.51 in 5.0 mi Calm Calm - N/A   Clear
6:15 AM 15.8 °F - 15.8 °F 100% 30.52 in 5.0 mi Calm Calm - N/A   Clear
6:35 AM 15.8 °F - 12.2 °F 86% 30.52 in 5.0 mi Calm Calm - N/A   Clear
6:51 AM 17.6 °F - 17.6 °F 100% 30.52 in 5.0 mi Calm Calm - N/A   Haze
8:55 AM 21.2 °F - 19.4 °F 93% 30.53 in 3.0 mi Calm Calm - N/A   Haze
9:57 AM 23.0 °F - 19.4 °F 86% 30.53 in 3.0 mi Calm Calm - N/A   Haze
10:56 AM 23.0 °F 17.0 °F 19.4 °F 86% 30.52 in 3.0 mi SW 4.6 mph - N/A   Haze
11:48 AM 24.8 °F 20.5 °F 19.4 °F 80% 30.50 in 3.0 mi Variable 3.5 mph - N/A   Haze
12:49 PM 26.6 °F 22.6 °F 19.4 °F 74% 30.46 in 10.0 mi Variable 3.5 mph - N/A   Clear
1:49 PM 28.4 °F 24.6 °F 21.2 °F 74% 30.44 in 4.0 mi Variable 3.5 mph - N/A   Haze
2:47 PM 28.4 °F 24.6 °F 21.2 °F 74% 30.41 in 5.0 mi Variable 3.5 mph - N/A   Haze
3:50 PM 30.2 °F 25.4 °F 21.2 °F 69% 30.39 in 5.0 mi Variable 4.6 mph - N/A   Haze
6:50 PM 24.8 °F 17.9 °F 21.2 °F 86% 30.37 in 5.0 mi Variable 5.8 mph - N/A   Haze
7:50 PM 23.0 °F 15.8 °F 21.2 °F 93% 30.36 in 5.0 mi Variable 5.8 mph - N/A   Haze
8:50 PM 21.2 °F - 19.4 °F 93% 30.35 in - Calm Calm - N/A   Haze
9:15 PM 23.0 °F - 23.0 °F 100% 30.34 in 3.0 mi Calm Calm - N/A   Clear
9:35 PM 21.2 °F 16.4 °F 21.2 °F 100% 30.34 in 2.5 mi NW 3.5 mph - N/A   Clear
9:55 PM 21.2 °F 16.4 °F 19.4 °F 93% 30.34 in 2.5 mi North 3.5 mph - N/A   Clear
10:15 PM 19.4 °F - 17.6 °F 93% 30.33 in 1.8 mi Calm Calm - N/A   Clear
10:35 PM 17.6 °F - 15.8 °F 93% 30.34 in 3.0 mi Calm Calm - N/A   Clear
10:55 PM 19.4 °F 14.3 °F 17.6 °F 93% 30.33 in 1.8 mi East 3.5 mph - N/A   Clear
11:15 PM 17.6 °F - 12.2 °F 79% 30.32 in 2.5 mi Calm Calm - N/A   Clear
11:35 PM 19.4 °F - 17.6 °F 93% 30.33 in 1.8 mi Calm Calm - N/A   Clear
11:55 PM 19.4 °F 12.8 °F 17.6 °F 93% 30.33 in 2.5 mi East 4.6 mph - N/A   Clear